Location: Cahas Mountain Overlook
(37.0833°N, 80.1000°W)
Time: 19:41:44
(UTC-04:00)

Explorer 7 - Pass Details

Date: 14 February 2026
Orbit: 430 x 541 km, 50.2° (Epoch: 13 March)

Event Time Altitude Azimuth Distance (km) Brightness Sun altitude
Rises 22:47:07 0° 308° (NW) 2,611 - -55.8°
Reaches altitude 10° 22:49:17 10° 309° (NW) 1,742 - -56.1°
Maximum altitude 22:53:16 88° 31° (NNE) 531 - -56.7°
Drops below altitude 10° 22:57:21 10° 129° (SE) 1,786 - -57.3°
Sets 22:59:36 0° 129° (SE) 2,683 - -57.7°
